Volver al catálogo

CZ-3B DEB

LostGTO
NORAD 39332·DEBRIS·🇨🇳 China

Lanzado Sep 4, 2010 desde Xichang Satellite Launch Center

Loading…

TLE

ObsoletoSource: Space-Track

Época: Sep 13, 2025, 14:12 UTC

1 39332U 10042D   25256.59199578  .00003550  00000-0  14475-1 0  9995
2 39332  24.2723 343.7076 7386847 200.6861  96.9386  2.06532556    14

Sigue CZ-3B DEB en tiempo real con AllMySat

Download on the App Store